This is the latest recevied weather packets stored in our database for station/object KF0WJA. If no packets are shown the sender has not sent any weather packets the latest 10 day(s).
| Time | Temp. | Humidity | Pressure | Rain* | Wind** | Luminosity | Snow |
|---|---|---|---|---|---|---|---|
| 1788115946 | 38.33° C | 36% | 1014.2 hPa | 0 mm | - | 677 W/m² | - |
| 1788115646 | 38.33° C | 36% | 1014.6 hPa | 0 mm | - | 679 W/m² | - |
| 1788115345 | 37.78° C | 37% | 1014.2 hPa | 0 mm | - | 668 W/m² | - |
| 1788115041 | 37.78° C | 37% | 1014.7 hPa | 0 mm | - | 658 W/m² | - |
| 1788114735 | 37.22° C | 38% | 1014.4 hPa | 0 mm | - | 662 W/m² | - |
| 1788114430 | 37.78° C | 38% | 1014.5 hPa | 0 mm | - | 654 W/m² | - |
| 1788114127 | 37.22° C | 39% | 1014.5 hPa | 0 mm | - | 636 W/m² | - |
| 1788113823 | 37.22° C | 38% | 1014.9 hPa | 0 mm | - | 636 W/m² | - |
| 1788113523 | 37.22° C | 38% | 1014.7 hPa | 0 mm | - | 640 W/m² | - |
| 1788113221 | 37.22° C | 39% | 1015.1 hPa | 0 mm | - | 647 W/m² | - |
| 1788112917 | 36.67° C | 39% | 1014.9 hPa | 0 mm | - | 644 W/m² | - |
| 1788112615 | 36.67° C | 38% | 1015.1 hPa | 0 mm | - | 619 W/m² | - |
| 1788112311 | 36.67° C | 40% | 1015.1 hPa | 0 mm | - | 662 W/m² | - |
| 1788112006 | 36.11° C | 40% | 1015.4 hPa | 0 mm | - | 676 W/m² | - |
| 1788111702 | 36.11° C | 40% | 1015.3 hPa | 0 mm | - | 686 W/m² | - |
| 1788111402 | 36.11° C | 40% | 1015.2 hPa | 0 mm | - | 707 W/m² | - |
| 1788111097 | 36.11° C | 40% | 1015.5 hPa | 0 mm | - | 703 W/m² | - |
| 1788110794 | 36.11° C | 40% | 1015.6 hPa | 0 mm | - | 704 W/m² | - |
| 1788110491 | 36.11° C | 40% | 1015.6 hPa | 0 mm | - | 691 W/m² | - |
| 1788110190 | 35.56° C | 41% | 1015.7 hPa | 0 mm | - | 688 W/m² | - |
| 1788109886 | 36.11° C | 41% | 1015.6 hPa | 0 mm | - | 685 W/m² | - |
| 1788109586 | 35.56° C | 41% | 1015.7 hPa | 0 mm | - | 672 W/m² | - |
| 1788109285 | 36.11° C | 41% | 1015.8 hPa | 0 mm | - | 680 W/m² | - |
| 1788108980 | 35.56° C | 41% | 1015.8 hPa | 0 mm | - | 677 W/m² | - |
| 1788108680 | 35° C | 41% | 1015.9 hPa | 0 mm | - | 664 W/m² | - |
* Rain latest hour (hover to see other rain measurements)
** Current wind speed in m/s (hover to see current wind gust speed)